Showing default

DEORBITSAIL, 40719

Orbit data source: Space-Track

DEORBITSAIL, 40719 is a payload satellite owned by Surrey Space Ctr (UK) in SSO that was launched on Fri, 10 Jul 2015 UTC via a PSLV-XL launch vehicle from the Sirharikota (SRI). Payload-class satellites include a variety of spacecraft equipped with specific instruments for various scientific and technological missions. These include communications satellites like Starlink; space stations such as the ISS; scientific satellites like the Hubble; Earth observation satellites from companies like Planet Labs, Umbra, and HawkEye 360; GPS; miniature CubeSats for education and research; and military/defense satellites.

Loading next visibility...
Identifier
40719, 2015-032E
Orbit
SSO
Country
Flag of UKUK
Related business
Manufacturer
Surrey Space Ctr
Mission
Non-operational Amateur Technology
Bus & Motor
CUBESAT 3U, Unknown motor
Mass
7 kg wet, 7 kg dry
Launch date (UTC)
2015-07-10 (11 years ago)
Launch vehicle
PSLV-XL
Launch site
Sirharikota (SRI)
Object type
Payload
Rocket body
Debris
Shape & HBR
Box + 1 Sail, 3.5 m
Radar Cross Section
0.039 m², Small (<0.1 m²)

Expand to show TLE details & history
Last TLE update: 7 hours ago

TLE from 7 hours ago
0 DEORBITSAIL
1 40719U 15032E   26038.05708605  .00012002  00000-0  92565-3 0  9997
2 40719  97.6078 257.4142 0010682 323.5046  36.5449 15.01699819571705
Epoch: 2026-02-07T01:22Z
TLE epoch observation values (Epoch: 2026-02-07T01:22:12.234Z)
Latitude
-0.00009°
Longitude
99.67716°
Altitude
558.76 km
Speed
7.585 km/s
True Right ascension
17h 09m 39s
True Declination
0° 00' 00"
Sunlit
Object was in daylight at epoch
Visualization orbit readout
Latitude
Unknown
Longitude
Unknown
Altitude
Unknown
Speed
Unknown
Apparent Right ascension
Unknown
Apparent Declination
Unknown
Sunlit
N/A
Visualization observer readout
Local Sidereal Time
10:53:52
Azimuth
Unknown
Elevation
Unknown
Doppler factor
Unknown
Orbital elements
Apogee altitude
566.063 km
Perigee altitude
551.244 km
Semi-major axis
6,936.79 km
Eccentricity
0.00107
Inclination
97.6078°
RAAN
257.4142°
Arg. of periapsis
323.5046°
True anomaly
36.61787°
Mean anomaly
36.5449°
Eccentric anomaly
36.58137°
Mean motion
3.75669 °/min
Orbital period
95.83 mins
BSTAR
0.00092565
Loading maneuver chart data...
Computing Atmospheric mass density...
Loading historical data...
Loading historical data...
Loading historical data...
Loading historical data...
Loading historical data...
Loading historical data...
Loading historical data...
Other satellites on launch #32 in the year 2015 (2015-07-10 UTC)

Documentation

Showing up to 5 results
|